• In United Kingdom
  • List of Countries
  • For 7 days
  • Water Temperature
  • Satellite Maps
  • Weather Map
  • Weather Widgets
  • user-avatar
    Login

    Hourly Weather Chorazycha

    Today, 23 April, Monday

    Time Temperature Precipitation Wind Pressure Humidity
    00:00 +7°C° 0 mm 2 mps 748 mmHg 76%
    01:00 +6°C° 0 mm 2 mps 748 mmHg 77%
    02:00 +5°C° 0 mm 2 mps 748 mmHg 78%
    03:00 +6°C° 0 mm 1 mps 748 mmHg 80%
    04:00 +6°C° 0 mm 1 mps 748 mmHg 81%
    05:00 +5°C° 0 mm 1 mps 748 mmHg 82%
    06:00 +7°C° 0 mm 1 mps 748 mmHg 76%
    07:00 +8°C° 0 mm 1 mps 748 mmHg 70%
    08:00 +10°C° 0 mm 1 mps 748 mmHg 64%
    09:00 +12°C° 0 mm 2 mps 747 mmHg 58%
    10:00 +14°C° 0 mm 2 mps 747 mmHg 51%
    11:00 +15°C° 0 mm 2 mps 747 mmHg 44%
    12:00 +16°C° 0 mm 2 mps 747 mmHg 41%
    13:00 +17°C° 0 mm 3 mps 746 mmHg 39%
    14:00 +18°C° 0 mm 3 mps 746 mmHg 36%
    15:00 +18°C° 0 mm 3 mps 745 mmHg 39%
    16:00 +18°C° 0 mm 3 mps 745 mmHg 42%
    17:00 +18°C° 0 mm 3 mps 744 mmHg 46%
    18:00 +17°C° 0.2 mm 3 mps 744 mmHg 53%
    19:00 +15°C° 0.2 mm 2 mps 743 mmHg 61%
    20:00 +14°C° 0.2 mm 2 mps 743 mmHg 68%
    21:00 +13°C° 0.4 mm 2 mps 743 mmHg 73%
    22:00 +13°C° 0.4 mm 2 mps 743 mmHg 78%
    23:00 +12°C° 0.4 mm 3 mps 743 mmHg 83%

    Tomorrow, 24 April, Tuesday

    Time Temperature Precipitation Wind Pressure Humidity
    00:00 +11°C° 0.1 mm 3 mps 743 mmHg 86%
    01:00 +11°C° 0.1 mm 3 mps 743 mmHg 90%
    02:00 +10°C° 0.1 mm 4 mps 743 mmHg 93%
    03:00 +10°C° 0 mm 4 mps 743 mmHg 93%
    04:00 +8°C° 0 mm 4 mps 743 mmHg 93%
    05:00 +7°C° 0 mm 4 mps 743 mmHg 93%
    06:00 +8°C° 0 mm 5 mps 744 mmHg 88%
    07:00 +8°C° 0 mm 5 mps 744 mmHg 83%
    08:00 +9°C° 0 mm 5 mps 745 mmHg 79%
    09:00 +10°C° 0 mm 6 mps 745 mmHg 73%
    10:00 +11°C° 0 mm 6 mps 745 mmHg 68%
    11:00 +13°C° 0 mm 6 mps 745 mmHg 63%
    12:00 +14°C° 0 mm 6 mps 745 mmHg 59%
    13:00 +14°C° 0 mm 6 mps 745 mmHg 56%
    14:00 +15°C° 0 mm 6 mps 745 mmHg 52%
    15:00 +15°C° 0 mm 5 mps 745 mmHg 53%
    16:00 +15°C° 0 mm 5 mps 745 mmHg 53%
    17:00 +15°C° 0 mm 4 mps 744 mmHg 54%
    18:00 +14°C° 0 mm 4 mps 744 mmHg 59%
    19:00 +12°C° 0 mm 3 mps 744 mmHg 65%
    20:00 +12°C° 0 mm 2 mps 744 mmHg 71%
    21:00 +11°C° 0 mm 3 mps 744 mmHg 72%
    22:00 +11°C° 0 mm 3 mps 744 mmHg 73%
    23:00 +11°C° 0 mm 4 mps 744 mmHg 74%

    Day after tomorrow, 25 April, Wednesday

    Time Temperature Precipitation Wind Pressure Humidity
    00:00 +11°C° 0.4 mm 4 mps 743 mmHg 79%
    01:00 +11°C° 0.4 mm 4 mps 743 mmHg 83%
    02:00 +11°C° 0.4 mm 4 mps 743 mmHg 87%
    03:00 +11°C° 0.2 mm 4 mps 743 mmHg 89%
    04:00 +10°C° 0.2 mm 4 mps 743 mmHg 91%
    05:00 +10°C° 0.2 mm 4 mps 743 mmHg 93%
    06:00 +10°C° 0 mm 4 mps 743 mmHg 88%
    07:00 +10°C° 0 mm 4 mps 744 mmHg 84%
    08:00 +11°C° 0 mm 4 mps 744 mmHg 79%
    09:00 +12°C° 0 mm 4 mps 744 mmHg 75%
    10:00 +12°C° 0 mm 4 mps 744 mmHg 71%
    11:00 +13°C° 0 mm 5 mps 744 mmHg 67%
    12:00 +13°C° 0.6 mm 4 mps 743 mmHg 73%
    13:00 +12°C° 0.6 mm 3 mps 743 mmHg 78%
    14:00 +13°C° 0.6 mm 2 mps 743 mmHg 83%
    15:00 +13°C° 0.9 mm 2 mps 742 mmHg 86%
    16:00 +13°C° 0.9 mm 2 mps 741 mmHg 88%
    17:00 +13°C° 0.9 mm 2 mps 741 mmHg 90%
    18:00 +12°C° 1 mm 3 mps 741 mmHg 91%
    19:00 +11°C° 1 mm 3 mps 741 mmHg 91%
    20:00 +11°C° 1 mm 4 mps 740 mmHg 92%
    21:00 +10°C° 0 mm 4 mps 741 mmHg 93%
    22:00 +8°C° 0 mm 4 mps 741 mmHg 93%
    23:00 +6°C° 0 mm 4 mps 742 mmHg 94%

    26 April, Thursday

    Time Temperature Precipitation Wind Pressure Humidity
    00:00 +7°C° 0 mm 3 mps 742 mmHg 94%
    01:00 +5°C° 0 mm 3 mps 743 mmHg 94%
    02:00 +4°C° 0 mm 3 mps 743 mmHg 95%
    03:00 +3°C° 0 mm 3 mps 744 mmHg 95%
    04:00 +3°C° 0 mm 3 mps 744 mmHg 95%
    05:00 +3°C° 0 mm 3 mps 745 mmHg 95%
    06:00 +4°C° 0 mm 4 mps 745 mmHg 90%
    07:00 +5°C° 0 mm 4 mps 745 mmHg 86%
    08:00 +7°C° 0 mm 4 mps 745 mmHg 81%
    09:00 +8°C° 0.1 mm 4 mps 745 mmHg 76%
    10:00 +9°C° 0.1 mm 5 mps 746 mmHg 71%
    11:00 +12°C° 0.1 mm 5 mps 746 mmHg 66%
    12:00 +12°C° 0.2 mm 5 mps 746 mmHg 65%
    13:00 +12°C° 0.2 mm 5 mps 746 mmHg 65%
    14:00 +13°C° 0.2 mm 5 mps 745 mmHg 65%
    15:00 +13°C° 0.1 mm 5 mps 745 mmHg 63%
    16:00 +13°C° 0.1 mm 5 mps 745 mmHg 61%
    17:00 +13°C° 0.1 mm 4 mps 745 mmHg 60%
    18:00 +12°C° 0 mm 3 mps 745 mmHg 65%
    19:00 +10°C° 0 mm 2 mps 745 mmHg 71%
    20:00 +10°C° 0 mm 1 mps 745 mmHg 76%
    21:00 +9°C° 0 mm 1 mps 745 mmHg 78%
    22:00 +8°C° 0 mm 2 mps 745 mmHg 79%
    23:00 +7°C° 0 mm 2 mps 745 mmHg 80%

    27 April, Friday

    Time Temperature Precipitation Wind Pressure Humidity
    00:00 +7°C° 0 mm 2 mps 745 mmHg 79%
    01:00 +7°C° 0 mm 3 mps 745 mmHg 79%
    02:00 +7°C° 0 mm 3 mps 744 mmHg 78%
    03:00 +7°C° 0.3 mm 3 mps 744 mmHg 82%
    04:00 +6°C° 0.3 mm 4 mps 744 mmHg 85%
    05:00 +7°C° 0.3 mm 4 mps 744 mmHg 88%
    06:00 +7°C° 0.1 mm 4 mps 744 mmHg 85%
    07:00 +8°C° 0.1 mm 5 mps 744 mmHg 83%
    08:00 +9°C° 0.1 mm 6 mps 744 mmHg 80%
    09:00 +9°C° 0 mm 6 mps 745 mmHg 77%
    10:00 +9°C° 0 mm 6 mps 745 mmHg 75%
    11:00 +9°C° 0 mm 6 mps 746 mmHg 72%
    12:00 +9°C° 0 mm 6 mps 746 mmHg 69%
    13:00 +9°C° 0 mm 6 mps 746 mmHg 65%
    14:00 +10°C° 0 mm 6 mps 747 mmHg 62%
    15:00 +10°C° 0 mm 5 mps 747 mmHg 60%
    16:00 +10°C° 0 mm 5 mps 747 mmHg 58%
    17:00 +12°C° 0 mm 5 mps 747 mmHg 55%
    18:00 +10°C° 0 mm 3 mps 748 mmHg 61%
    19:00 +9°C° 0 mm 2 mps 748 mmHg 67%
    20:00 +8°C° 0 mm 1 mps 748 mmHg 73%
    21:00 +8°C° 0 mm 1 mps 748 mmHg 75%
    22:00 +6°C° 0 mm 2 mps 749 mmHg 77%
    23:00 +6°C° 0 mm 2 mps 749 mmHg 79%

    28 April, Saturday

    Time Temperature Precipitation Wind Pressure Humidity
    00:00 +5°C° 0 mm 2 mps 749 mmHg 81%
    01:00 +5°C° 0 mm 2 mps 749 mmHg 82%
    02:00 +5°C° 0 mm 2 mps 749 mmHg 84%
    03:00 +5°C° 0 mm 2 mps 749 mmHg 85%
    04:00 +4°C° 0 mm 2 mps 749 mmHg 86%
    05:00 +4°C° 0 mm 2 mps 749 mmHg 87%
    06:00 +5°C° 0 mm 3 mps 750 mmHg 81%
    07:00 +8°C° 0 mm 3 mps 750 mmHg 76%
    08:00 +10°C° 0 mm 3 mps 750 mmHg 70%
    09:00 +11°C° 0.1 mm 3 mps 750 mmHg 63%
    10:00 +13°C° 0.1 mm 4 mps 750 mmHg 56%
    11:00 +14°C° 0.1 mm 4 mps 750 mmHg 50%
    12:00 +14°C° 0 mm 4 mps 750 mmHg 48%
    13:00 +15°C° 0 mm 4 mps 750 mmHg 47%
    14:00 +15°C° 0 mm 4 mps 750 mmHg 45%
    15:00 +16°C° 0 mm 3 mps 750 mmHg 46%
    16:00 +16°C° 0 mm 3 mps 750 mmHg 46%
    17:00 +16°C° 0 mm 2 mps 750 mmHg 47%
    18:00 +15°C° 0 mm 2 mps 750 mmHg 52%
    19:00 +13°C° 0 mm 2 mps 750 mmHg 56%
    20:00 +11°C° 0 mm 1 mps 751 mmHg 61%
    21:00 +10°C° 0 mm 2 mps 751 mmHg 64%
    22:00 +9°C° 0 mm 2 mps 751 mmHg 66%
    23:00 +9°C° 0 mm 3 mps 751 mmHg 69%
    Show more